Volver al catálogo

CZ-6A DEB

ActivoPO
NORAD 54945·DEBRIS·🇨🇳 China

Lanzado Nov 11, 2022 desde Taiyuan Satellite Launch Center

Loading…

Próximos Pases (próximas 24 horas)

TLE

ActualizadoSource: Space-Track

Época: Sep 14, 2026, 07:58 UTC

1 54945U 22151SJ  26257.33245741  .00006361  00000-0  11705-2 0  9991
2 54945  99.1465  40.9881 0068581  81.5059 279.3905 14.64488376131156

Sigue CZ-6A DEB en tiempo real con AllMySat

Download on the App Store